Погода в Мессине

Италия     38°10′43″N   15°32′57″E
темп.,
°C
ветер,
м/с
пор.,
м/с
влажн.,
%
обл.,
%
осадки,
мм/ч
давл.,
гПа
погр.,
м
15 апреля, чт
чт1523:00+11ююв468168 0.0 1020459
02:00+11ю5979100 0.0 1020430
05:00+11ю587497 0.0 1019453
08:00+12ю477019 0.0 1019503
11:00+14ю666328 0.0 1019920
14:00+15ю666199 0.0 1019748
17:00+14ю566987 0.0 1018600
20:00+11ююв4687100 0.1 1018340
16 апреля, пт
пт1623:00+11ююв4689100 0.3 1017353
02:00+10ююв3591100 1.8 1016313
05:00+10юв3591100 1.1 1014288
08:00+10ююв4883100 1.7 1013373
11:00+14ююв4563100 0.0 1012835
14:00+16ююв456099 0.0 1009633
17:00+16ю45508 0.0 1007750
20:00+11юв33690 0.0 100891
17 апреля, сб
сб1723:00+10ююв33732 0.0 100881
02:00+10ссз117530 0.0 100692
05:00+11зсз237893 0.0 1005203
08:00+12зсз3481100 0.1 1006495
11:00+11сз3490100 0.6 1007425
14:00+11ссз3490100 1.4 1008535
17:00+12ссз358396 0.3 1008802
20:00+11сз248377 0.4 1010397
18 апреля, вс
вс1823:00+11сз248344 0.1 1011410
02:00+11зсз1181100 0.1 1011265
05:00+10юз1192100 1.8 101191
08:00+11зюз128567 3.4 1012287
11:00+14сз337133 0.3 1013899
14:00+15ссз2262100 0.7 1012970
17:00+11зюз118899 2.9 1012207
20:00+10зюз3387100 4.3 1012165
19 апреля, пн
пн1923:00+10з3489100 1.2 1012246
02:00+10зюз4690100 5.5 1012370
05:00+11сз6978100 5.4 1011917
08:00+12зсз9127628 5.9 10111222
11:00+13зсз9127090 0.9 10121549
14:00+13зсз9127131 1.8 10131470
17:00+12з7107797 1.4 10131185
20:00+11з598115 2.6 1013599